Time,TemperatureF,DewpointF,PressureIn,WindDirection,WindDirectionDegrees,WindSpeedMPH,WindSpeedGustMPH,Humidity,HourlyPrecipIn,Conditions,Clouds,dailyrainin,SoftwareType,DateUTC
2013-06-25 00:01:00,66.0,63.0,29.75,West,268,0.0,0.0,91,0.00,,,0.00,,2013-06-25 05:01:00,
2013-06-25 00:11:00,66.0,63.0,29.75,West,268,0.0,0.0,91,0.00,,,0.00,,2013-06-25 05:11:00,
2013-06-25 00:22:00,66.0,63.0,29.74,West,268,0.0,0.0,91,0.00,,,0.00,,2013-06-25 05:22:00,
2013-06-25 00:32:00,66.0,63.0,29.74,West,268,0.0,0.0,91,0.00,,,0.00,,2013-06-25 05:32:00,
2013-06-25 00:44:00,66.0,63.0,29.75,West,268,0.0,0.0,91,0.00,,,0.00,,2013-06-25 05:44:00,
2013-06-25 00:52:00,65.0,62.0,29.76,West,268,0.0,0.0,91,0.00,,,0.00,,2013-06-25 05:52:00,
2013-06-25 01:01:00,65.0,62.0,29.76,West,268,0.0,0.0,91,0.00,,,0.00,,2013-06-25 06:01:00,
2013-06-25 01:11:00,65.0,62.0,29.76,West,268,0.0,0.0,91,0.00,,,0.00,,2013-06-25 06:11:00,
2013-06-25 01:22:00,65.0,62.0,29.75,West,268,0.0,0.0,91,0.00,,,0.00,,2013-06-25 06:22:00,
2013-06-25 01:33:00,65.0,62.0,29.75,West,268,0.0,0.0,91,0.00,,,0.00,,2013-06-25 06:33:00,
2013-06-25 01:43:00,66.0,63.0,29.76,West,268,0.0,0.0,90,0.00,,,0.00,,2013-06-25 06:43:00,
2013-06-25 01:52:00,67.0,64.0,29.75,West,268,0.0,1.0,89,0.00,,,0.00,,2013-06-25 06:52:00,
2013-06-25 02:02:00,67.0,64.0,29.75,West,268,0.0,1.0,89,0.00,,,0.00,,2013-06-25 07:02:00,
2013-06-25 02:11:00,68.0,65.0,29.76,West,260,0.0,1.0,90,0.00,,,0.00,,2013-06-25 07:11:00,
2013-06-25 02:33:00,68.0,65.0,29.76,West,260,0.0,1.0,91,0.00,,,0.00,,2013-06-25 07:33:00,
2013-06-25 02:43:00,68.0,65.0,29.76,West,260,0.0,2.0,91,0.00,,,0.00,,2013-06-25 07:43:00,
2013-06-25 03:01:00,66.0,64.0,29.76,West,260,0.0,0.0,93,0.00,,,0.00,,2013-06-25 08:01:00,
2013-06-25 03:11:00,66.0,64.0,29.76,West,260,0.0,1.0,94,0.00,,,0.00,,2013-06-25 08:11:00,
2013-06-25 03:34:00,68.0,67.0,29.77,WSW,250,0.0,2.0,96,0.00,,,0.00,,2013-06-25 08:34:00,
2013-06-25 03:43:00,68.0,67.0,29.77,West,263,0.0,3.0,95,0.00,,,0.00,,2013-06-25 08:43:00,
2013-06-25 04:02:00,68.0,67.0,29.76,West,264,0.0,3.0,95,0.00,,,0.00,,2013-06-25 09:02:00,
2013-06-25 04:12:00,68.0,67.0,29.76,West,264,0.0,1.0,95,0.00,,,0.00,,2013-06-25 09:12:00,
2013-06-25 04:33:00,67.0,66.0,29.76,West,264,0.0,2.0,95,0.00,,,0.00,,2013-06-25 09:33:00,
2013-06-25 04:43:00,66.0,65.0,29.76,West,264,0.0,0.0,95,0.00,,,0.00,,2013-06-25 09:43:00,
2013-06-25 05:01:00,66.0,65.0,29.76,West,264,0.0,2.0,96,0.00,,,0.00,,2013-06-25 10:01:00,
2013-06-25 05:11:00,66.0,65.0,29.76,West,264,0.0,1.0,95,0.00,,,0.00,,2013-06-25 10:11:00,
2013-06-25 05:21:00,66.0,65.0,29.76,West,264,0.0,1.0,95,0.00,,,0.00,,2013-06-25 10:21:00,
2013-06-25 05:33:00,65.0,64.0,29.77,West,264,0.0,0.0,95,0.00,,,0.00,,2013-06-25 10:33:00,
2013-06-25 05:42:00,65.0,64.0,29.77,West,264,0.0,1.0,96,0.00,,,0.00,,2013-06-25 10:42:00,
2013-06-25 05:52:00,65.0,64.0,29.77,West,264,0.0,1.0,96,0.00,,,0.00,,2013-06-25 10:52:00,
2013-06-25 06:02:00,65.0,64.0,29.78,West,266,0.0,1.0,95,0.00,,,0.00,,2013-06-25 11:02:00,
2013-06-25 06:12:00,66.0,65.0,29.78,West,266,0.0,1.0,95,0.00,,,0.00,,2013-06-25 11:12:00,
2013-06-25 06:34:00,66.0,64.0,29.78,SSW,209,0.0,2.0,94,0.00,,,0.00,,2013-06-25 11:34:00,
2013-06-25 06:43:00,66.0,64.0,29.77,SSW,209,0.0,1.0,93,0.00,,,0.00,,2013-06-25 11:43:00,
2013-06-25 06:52:00,66.0,64.0,29.77,SSW,209,0.0,1.0,93,0.00,,,0.00,,2013-06-25 11:52:00,
2013-06-25 07:02:00,67.0,65.0,29.77,SSW,210,0.0,3.0,93,0.00,,,0.00,,2013-06-25 12:02:00,
2013-06-25 07:11:00,68.0,65.0,29.76,SSW,211,0.0,3.0,91,0.00,,,0.00,,2013-06-25 12:11:00,
2013-06-25 07:22:00,69.0,66.0,29.76,SW,223,1.0,3.0,89,0.00,,,0.00,,2013-06-25 12:22:00,
2013-06-25 07:33:00,69.0,66.0,29.76,SW,223,1.0,3.0,89,0.00,,,0.00,,2013-06-25 12:33:00,
2013-06-25 07:43:00,69.0,65.0,29.75,WNW,284,0.0,4.0,88,0.00,,,0.00,,2013-06-25 12:43:00,
2013-06-25 07:55:00,70.0,66.0,29.76,WNW,286,1.0,3.0,87,0.00,,,0.00,,2013-06-25 12:55:00,
2013-06-25 08:02:00,70.0,66.0,29.76,WNW,286,1.0,3.0,87,0.00,,,0.00,,2013-06-25 13:02:00,
2013-06-25 08:11:00,71.0,67.0,29.76,WNW,285,0.0,2.0,86,0.00,,,0.00,,2013-06-25 13:11:00,
2013-06-25 08:34:00,71.0,67.0,29.76,SW,236,0.0,2.0,86,0.00,,,0.00,,2013-06-25 13:34:00,
2013-06-25 08:42:00,71.0,67.0,29.77,SW,236,0.0,2.0,86,0.00,,,0.00,,2013-06-25 13:42:00,
2013-06-25 09:01:00,72.0,67.0,29.77,South,187,1.0,4.0,85,0.00,,,0.00,,2013-06-25 14:01:00,
2013-06-25 09:11:00,74.0,68.0,29.77,WSW,253,0.0,4.0,83,0.00,,,0.00,,2013-06-25 14:11:00,
2013-06-25 09:34:00,75.0,69.0,29.77,SW,229,0.0,4.0,81,0.00,,,0.00,,2013-06-25 14:34:00,
2013-06-25 09:43:00,76.0,69.0,29.77,NE,56,1.0,3.0,78,0.00,,,0.00,,2013-06-25 14:43:00,
2013-06-25 09:53:00,76.0,69.0,29.77,NE,56,1.0,3.0,78,0.00,,,0.00,,2013-06-25 14:53:00,
2013-06-25 10:02:00,77.0,69.0,29.76,South,175,0.0,3.0,76,0.00,,,0.00,,2013-06-25 15:02:00,
2013-06-25 10:11:00,77.0,69.0,29.76,WSW,252,0.0,4.0,77,0.00,,,0.00,,2013-06-25 15:11:00,
2013-06-25 10:22:00,77.0,69.0,29.76,WSW,252,0.0,4.0,77,0.00,,,0.00,,2013-06-25 15:22:00,
2013-06-25 10:32:00,78.0,70.0,29.75,South,178,0.0,4.0,77,0.00,,,0.00,,2013-06-25 15:32:00,
2013-06-25 10:44:00,79.0,70.0,29.76,SW,229,0.0,4.0,74,0.00,,,0.00,,2013-06-25 15:44:00,
2013-06-25 10:53:00,79.0,70.0,29.76,SW,229,0.0,4.0,74,0.00,,,0.00,,2013-06-25 15:53:00,
2013-06-25 11:03:00,80.0,70.0,29.76,South,181,0.0,5.0,72,0.00,,,0.00,,2013-06-25 16:03:00,
2013-06-25 11:12:00,81.0,70.0,29.77,SSW,197,1.0,5.0,69,0.00,,,0.00,,2013-06-25 16:12:00,
2013-06-25 11:23:00,81.0,70.0,29.77,SSW,197,1.0,5.0,69,0.00,,,0.00,,2013-06-25 16:23:00,
2013-06-25 11:35:00,82.0,69.0,29.76,ENE,74,1.0,3.0,65,0.00,,,0.00,,2013-06-25 16:35:00,
2013-06-25 11:44:00,82.0,68.0,29.75,ENE,76,0.0,4.0,62,0.00,,,0.00,,2013-06-25 16:44:00,
2013-06-25 11:52:00,82.0,68.0,29.75,ENE,76,0.0,4.0,62,0.00,,,0.00,,2013-06-25 16:52:00,
2013-06-25 12:01:00,83.0,70.0,29.75,SSW,213,0.0,3.0,64,0.00,,,0.00,,2013-06-25 17:01:00,
2013-06-25 12:11:00,84.0,68.0,29.75,East,94,1.0,3.0,58,0.00,,,0.00,,2013-06-25 17:11:00,
2013-06-25 12:22:00,84.0,68.0,29.75,East,94,1.0,3.0,58,0.00,,,0.00,,2013-06-25 17:22:00,
2013-06-25 12:33:00,82.0,70.0,29.75,ENE,69,1.0,3.0,68,0.00,,,0.00,,2013-06-25 17:33:00,
2013-06-25 12:44:00,82.0,71.0,29.75,NNE,22,1.0,3.0,70,0.00,,,0.00,,2013-06-25 17:44:00,
2013-06-25 12:53:00,82.0,71.0,29.75,NNE,22,1.0,3.0,70,0.00,,,0.00,,2013-06-25 17:53:00,
2013-06-25 13:02:00,82.0,72.0,29.74,NNE,32,1.0,4.0,71,0.00,,,0.00,,2013-06-25 18:02:00,
2013-06-25 13:12:00,81.0,70.0,29.74,ENE,57,1.0,6.0,70,0.00,,,0.00,,2013-06-25 18:12:00,
2013-06-25 13:22:00,81.0,70.0,29.74,ENE,57,1.0,6.0,70,0.00,,,0.00,,2013-06-25 18:22:00,
2013-06-25 13:34:00,80.0,70.0,29.74,NE,51,1.0,4.0,71,0.00,,,0.00,,2013-06-25 18:34:00,
2013-06-25 13:44:00,82.0,72.0,29.74,NE,52,1.0,3.0,72,0.00,,,0.00,,2013-06-25 18:44:00,
2013-06-25 13:52:00,82.0,72.0,29.74,NE,52,1.0,3.0,72,0.00,,,0.00,,2013-06-25 18:52:00,
2013-06-25 14:01:00,82.0,70.0,29.74,NE,38,1.0,7.0,68,0.00,,,0.00,,2013-06-25 19:01:00,
2013-06-25 14:12:00,83.0,70.0,29.74,North,349,1.0,5.0,65,0.00,,,0.00,,2013-06-25 19:12:00,
2013-06-25 14:22:00,83.0,70.0,29.74,North,349,1.0,5.0,65,0.00,,,0.00,,2013-06-25 19:22:00,
2013-06-25 14:33:00,83.0,70.0,29.73,NE,53,1.0,5.0,65,0.00,,,0.00,,2013-06-25 19:33:00,
2013-06-25 14:44:00,84.0,71.0,29.73,NNE,15,0.0,3.0,66,0.00,,,0.00,,2013-06-25 19:44:00,
2013-06-25 14:53:00,84.0,71.0,29.73,NNE,15,0.0,3.0,66,0.00,,,0.00,,2013-06-25 19:53:00,
2013-06-25 15:02:00,85.0,70.0,29.72,ENE,57,1.0,5.0,61,0.00,,,0.00,,2013-06-25 20:02:00,
2013-06-25 15:11:00,85.0,71.0,29.72,NNE,19,1.0,4.0,64,0.00,,,0.00,,2013-06-25 20:11:00,
2013-06-25 15:22:00,85.0,71.0,29.72,NNE,19,1.0,4.0,64,0.00,,,0.00,,2013-06-25 20:22:00,
2013-06-25 15:33:00,85.0,70.0,29.72,NNW,346,1.0,5.0,62,0.00,,,0.00,,2013-06-25 20:33:00,
2013-06-25 15:42:00,85.0,70.0,29.71,North,5,1.0,6.0,61,0.00,,,0.00,,2013-06-25 20:42:00,
2013-06-25 15:52:00,85.0,70.0,29.71,North,5,1.0,6.0,61,0.00,,,0.00,,2013-06-25 20:52:00,
2013-06-25 16:01:00,86.0,69.0,29.71,North,5,1.0,6.0,58,0.00,,,0.00,,2013-06-25 21:01:00,
2013-06-25 16:11:00,86.0,70.0,29.71,NE,44,0.0,4.0,59,0.00,,,0.00,,2013-06-25 21:11:00,
2013-06-25 16:22:00,86.0,70.0,29.71,NE,44,0.0,4.0,59,0.00,,,0.00,,2013-06-25 21:22:00,
2013-06-25 16:34:00,86.0,70.0,29.71,NE,43,0.0,4.0,60,0.00,,,0.00,,2013-06-25 21:34:00,
2013-06-25 16:43:00,86.0,69.0,29.71,NE,50,1.0,5.0,58,0.00,,,0.00,,2013-06-25 21:43:00,
2013-06-25 16:53:00,86.0,69.0,29.71,NE,50,1.0,5.0,58,0.00,,,0.00,,2013-06-25 21:53:00,
2013-06-25 17:01:00,86.0,70.0,29.71,NE,44,0.0,3.0,60,0.00,,,0.00,,2013-06-25 22:01:00,
2013-06-25 17:11:00,85.0,70.0,29.71,NNE,25,1.0,5.0,60,0.00,,,0.00,,2013-06-25 22:11:00,
2013-06-25 17:22:00,85.0,70.0,29.71,NNE,25,1.0,5.0,60,0.00,,,0.00,,2013-06-25 22:22:00,
2013-06-25 17:34:00,85.0,70.0,29.71,NE,44,1.0,5.0,60,0.00,,,0.00,,2013-06-25 22:34:00,
2013-06-25 17:42:00,84.0,69.0,29.70,ENE,65,2.0,3.0,60,0.00,,,0.00,,2013-06-25 22:42:00,
2013-06-25 17:52:00,84.0,69.0,29.70,ENE,65,2.0,3.0,60,0.00,,,0.00,,2013-06-25 22:52:00,
2013-06-25 18:01:00,83.0,69.0,29.70,NNE,18,1.0,4.0,63,0.00,,,0.00,,2013-06-25 23:01:00,
2013-06-25 18:11:00,82.0,67.0,29.70,ENE,69,1.0,5.0,61,0.00,,,0.00,,2013-06-25 23:11:00,
2013-06-25 18:22:00,82.0,67.0,29.70,ENE,69,1.0,5.0,61,0.00,,,0.00,,2013-06-25 23:22:00,
2013-06-25 18:34:00,82.0,68.0,29.70,NE,36,1.0,5.0,63,0.00,,,0.00,,2013-06-25 23:34:00,
2013-06-25 18:43:00,81.0,66.0,29.70,NE,46,0.0,5.0,61,0.00,,,0.00,,2013-06-25 23:43:00,
2013-06-25 18:52:00,81.0,66.0,29.70,NE,46,0.0,5.0,61,0.00,,,0.00,,2013-06-25 23:52:00,
2013-06-25 19:02:00,81.0,66.0,29.70,NNE,24,1.0,4.0,61,0.00,,,0.00,,2013-06-26 00:02:00,
2013-06-25 19:11:00,81.0,67.0,29.69,ESE,117,1.0,3.0,62,0.00,,,0.00,,2013-06-26 00:11:00,
2013-06-25 19:22:00,81.0,67.0,29.69,ESE,117,1.0,3.0,62,0.00,,,0.00,,2013-06-26 00:22:00,
2013-06-25 19:33:00,80.0,66.0,29.70,NNE,19,0.0,3.0,62,0.00,,,0.00,,2013-06-26 00:33:00,
2013-06-25 19:42:00,73.0,67.0,29.70,WSW,257,0.0,3.0,81,0.00,,,0.00,,2013-06-26 00:42:00,
2013-06-25 19:52:00,73.0,67.0,29.70,WSW,257,0.0,3.0,81,0.00,,,0.00,,2013-06-26 00:52:00,
2013-06-25 20:01:00,73.0,67.0,29.69,NNE,29,0.0,2.0,82,0.00,,,0.00,,2013-06-26 01:01:00,
2013-06-25 20:11:00,73.0,68.0,29.68,NNE,29,0.0,2.0,83,0.00,,,0.00,,2013-06-26 01:11:00,
2013-06-25 20:22:00,73.0,68.0,29.68,NNE,29,0.0,2.0,83,0.00,,,0.00,,2013-06-26 01:22:00,
2013-06-25 20:33:00,72.0,67.0,29.69,NNE,29,0.0,2.0,84,0.00,,,0.00,,2013-06-26 01:33:00,
2013-06-25 20:43:00,70.0,66.0,29.69,NNE,29,0.0,2.0,87,0.00,,,0.00,,2013-06-26 01:43:00,
2013-06-25 20:53:00,70.0,66.0,29.69,NNE,29,0.0,2.0,87,0.00,,,0.00,,2013-06-26 01:53:00,
2013-06-25 21:02:00,70.0,66.0,29.69,NNE,29,0.0,1.0,88,0.00,,,0.00,,2013-06-26 02:02:00,
2013-06-25 21:11:00,70.0,66.0,29.69,NNE,29,0.0,2.0,87,0.00,,,0.00,,2013-06-26 02:11:00,
2013-06-25 21:22:00,70.0,66.0,29.69,NNE,29,0.0,2.0,87,0.00,,,0.00,,2013-06-26 02:22:00,
2013-06-25 21:34:00,69.0,65.0,29.69,NNE,29,0.0,1.0,87,0.00,,,0.00,,2013-06-26 02:34:00,
2013-06-25 21:43:00,69.0,65.0,29.69,NNE,29,0.0,0.0,86,0.00,,,0.00,,2013-06-26 02:43:00,
2013-06-25 21:53:00,69.0,65.0,29.69,NNE,29,0.0,0.0,86,0.00,,,0.00,,2013-06-26 02:53:00,
2013-06-25 22:02:00,69.0,65.0,29.69,NNE,29,0.0,0.0,86,0.00,,,0.00,,2013-06-26 03:02:00,
2013-06-25 22:11:00,69.0,65.0,29.69,NNE,29,0.0,0.0,86,0.00,,,0.00,,2013-06-26 03:11:00,
2013-06-25 22:22:00,68.0,64.0,29.69,NNE,29,0.0,0.0,87,0.00,,,0.00,,2013-06-26 03:22:00,
2013-06-25 22:33:00,68.0,64.0,29.69,NNE,29,0.0,0.0,88,0.00,,,0.00,,2013-06-26 03:33:00,
2013-06-25 22:43:00,68.0,65.0,29.69,NNE,29,0.0,0.0,89,0.00,,,0.00,,2013-06-26 03:43:00,
2013-06-25 22:52:00,68.0,65.0,29.69,NNE,29,0.0,0.0,89,0.00,,,0.00,,2013-06-26 03:52:00,
2013-06-25 23:01:00,68.0,65.0,29.68,NNE,29,0.0,0.0,90,0.00,,,0.00,,2013-06-26 04:01:00,
2013-06-25 23:12:00,67.0,64.0,29.69,NNE,29,0.0,0.0,90,0.00,,,0.00,,2013-06-26 04:12:00,
2013-06-25 23:22:00,67.0,64.0,29.69,NNE,29,0.0,0.0,90,0.00,,,0.00,,2013-06-26 04:22:00,
2013-06-25 23:33:00,67.0,64.0,29.69,NNE,29,0.0,0.0,91,0.00,,,0.00,,2013-06-26 04:33:00,
2013-06-25 23:43:00,67.0,64.0,29.69,NNE,29,0.0,0.0,91,0.00,,,0.00,,2013-06-26 04:43:00,
2013-06-25 23:53:00,67.0,64.0,29.69,NNE,29,0.0,0.0,91,0.00,,,0.00,,2013-06-26 04:53:00,